SCP
0 0 0 0 0 0 0 0 0 0 0 0 0 0 0 0 0 0 0 0 0 0 0 0 0 0 0 0 0 0 0 0 0 -0 -0 0 0 0 0 0 0 0 0
0 0 0 0 0 0 0 0 0 0 0 0 0 0 0 0 0 0 0 0 0 0 0 0 0 0 0 0 0 0 0 0 0 -0 -0 0 0 0 0 0 0 0 0
0 0 0 0 0 0 0 0 0 0 0 0 0 0 0 0 0 0 0 0 0 0 0 0 0 0 0 0 0 0 0 0 0 0 -0 0 0 0 0 0 -0 0 0
0 0 0 0 0 0 0 0 0 0 0 0 0 0 0 0 0 0 0 0 0 0 0 0 0 0 0 0 0 0 0 0 0 0 0 0 0 0 0 0 0 0 0
0 0 0 0 0 0 0 0 0 0 0 0 0 0 0 0 0 0 0 0 0 0 0 0 0 0 0 0 0 0 0 0 0 0 0 0 0 0 0 0 0 0 0
0 0 0 0 0 0 0 0 0 0 0 0 0 0 0 0 0 0 0 0 0 0 0 0 0 0 0 0 0 0 0 0 0 0 0 0 0 0 0 0 0 0 0
0 0 0 0 0 0 0 0 0 0 0 0 0 0 0 0 0 0 0 0 0 0 0 0 0 0 0 0 0 0 0 0 0 0 0 0 0 0 0 0 0 0 0
0 0 0 0 0 0 0 0 0 0 0 0 0 0 0 0 0 0 0 0 0 0 0 0 0 0 0 0 0 0 0 0 0 0 0 0 0 0 0 0 0 0 0
0 0 0 0 0 0 0 0 0 0 0 0 0 0 0 0 0 0 0 0 0 0 0 0 0 0 0 0 0 0 0 0 0 0 0 0 0 0 0 0 0 0 0
0 0 0 0 0 0 0 0 0 0 0 0 0 0 0 0 0 0 0 0 0 0 0 0 0 0 0 0 0 0 0 0 0 0 0 0 0 0 0 0 0 0 0
0 0 0 0 0 0 0 0 0 0 0 0 0 0 0 0 0 0 0 0 0 0 0 0 0 0 0 0 0 0 0 0 0 0 0 0 0 0 0 0 0 0 0
0 0 0 0 0 0 0 0 0 0 0 0 0 0 0 0 0 0 0 0 0 0 0 0 0 0 0 0 0 0 0 0 0 0 0 0 0 0 0 0 0 0 0
0 0 0 0 0 0 0 0 0 0 0 0 0 0 0 0 0 0 0 0 0 0 0 0 0 0 0 0 0 0 0 0 0 0 0 0 0 0 0 0 0 0 0
0 0 -0 0 0 0 0 0 0 0 0 0 0 0 0 0 0 0 0 0 0 0 0 0 0 0 0 0 0 0 0 0 0 0 0 0 0 0 0 0 0 0 0
0 0 0 0 0 0 0 0 0 0 0 0 0 0 0 0 0 0 0 0 0 0 0 0 0 0 0 0 0 0 0 0 0 0 0 0 0 0 0 0 0 0 0
0 0 0 0 0 0 0 0 0 0 0 0 0 0 0 0 0 0 0 0 0 0 0 0 0 0 0 0 0 0 0 0 0 0 0 0 0 0 0 0 0 0 0
0 0 0 0 0 0 0 0 0 0 0 0 0 0 0 0 0 0 0 0 0 0 0 0 0 0 0 0 0 0 0 0 0 0 0 0 0 0 0 0 0 0 0
0 0 0 0 0 0 0 0 0 0 0 0 0 0 0 0 0 0 0 0 0 0 0 0 0 0 0 0 0 0 0 0 0 0 0 0 0 0 0 0 0 0 0
0 0 0 0 0 0 0 0 0 0 0 0 0 0 0 0 0 0 0 0 0 0 0 0 0 0 0 0 0 0 0 0 0 0 0 0 0 0 0 0 0 0 0
0 0 0 0 0 0 0 0 0 0 0 0 0 0 0 0 0 0 0 0 0 0 0 0 0 0 0 0 0 0 0 0 0 0 0 0 0 0 0 0 0 0 0
0 0 0 0 0 0 0 0 0 0 0 0 0 0 0 0 0 0 0 0 0 0 0 0 0 0 0 0 0 0 0 0 0 0 0 0 0 0 0 0 0 0 0
0 0 0 0 0 0 0 0 0 0 0 0 0 0 0 0 0 0 0 0 0 0 0 0 0 0 0 0 0 0 0 0 0 0 0 0 0 0 0 0 0 0 0
0 0 0 0 0 0 0 0 0 0 0 0 0 0 0 0 0 0 0 0 0 0 0 0 0 0 0 0 0 0 0 0 0 0 0 0 0 0 0 0 0 0 0
0 0 0 0 0 0 0 0 0 0 0 0 0 0 0 0 0 0 0 0 0 0 0 0 0 0 0 0 0 0 0 0 0 0 0 0 0 0 0 0 0 0 0
0 0 0 0 0 0 0 0 0 0 0 0 0 0 0 0 0 0 0 0 0 0 0 0 0 0 0 0 0 0 0 0 0 0 0 0 0 0 0 0 0 0 0
0 0 0 0 0 0 0 0 0 0 0 0 0 0 0 0 0 0 0 0 0 0 -0 -0 0 0 -0 -0 -0 -0 -0 -0 -0 0 0 0 0 0 0 0 0 0 0
Wind_Speed_500mb
36 45 47 50 50 53 52 48 46 46 45 42 38 34 31 27 26 24 23 22 21 20 20 20 21 23 22 25 26 30 31 32 27 22 19 23 23 27 30 34 34 33 32
39 45 50 53 52 55 53 48 46 47 44 39 35 30 30 28 27 26 26 24 21 19 18 16 15 16 18 20 20 21 24 28 28 20 17 10 13 25 26 26 31 31 32
42 47 50 53 52 55 53 49 48 46 43 39 37 33 33 33 32 30 28 26 23 19 16 14 12 11 12 13 14 16 17 22 23 24 17 6 7 9 16 21 23 26 28
37 43 48 50 52 52 49 48 47 45 42 41 44 44 38 36 31 30 30 28 25 21 18 14 12 9 8 7 8 10 13 15 18 18 20 14 9 5 3 7 16 26 22
35 41 45 45 45 50 48 48 47 45 45 46 42 39 34 29 29 32 31 30 27 23 19 16 14 10 8 5 3 5 8 11 14 17 17 12 8 8 5 6 17 17 18
20 31 35 38 38 44 47 50 48 45 47 45 40 36 30 33 34 33 33 32 28 24 21 17 14 11 9 6 3 1 4 8 12 14 14 10 8 11 10 14 23 24 26
17 26 35 39 43 46 46 49 51 48 47 42 41 38 39 39 33 31 32 31 29 26 22 18 15 12 9 8 6 5 5 8 11 12 11 10 10 11 14 17 21 30 30
15 23 29 35 39 43 44 49 48 48 45 46 45 45 43 37 31 30 30 28 26 25 23 19 15 13 11 10 8 8 9 11 12 9 8 10 12 14 17 19 24 29 27
11 15 20 27 31 34 39 42 45 45 43 44 46 44 39 37 35 36 32 31 29 23 22 19 17 14 12 10 10 12 12 10 8 9 9 10 14 16 19 21 24 24 21
10 15 20 21 22 27 33 37 41 41 45 45 45 45 45 42 39 38 37 35 29 24 21 19 16 13 12 13 12 11 10 9 11 13 14 16 19 22 23 24 25 25 26
4 10 17 22 28 32 37 39 38 43 44 45 46 47 46 44 42 40 35 30 26 24 20 15 13 13 12 11 12 13 13 13 14 17 20 22 23 26 28 28 30 32 32
9 12 21 25 31 39 43 44 45 44 44 45 47 46 46 46 43 39 36 31 27 22 17 14 14 15 16 16 16 16 17 18 20 22 25 27 29 31 33 34 34 34 34
15 13 19 27 34 35 37 41 43 48 52 54 52 51 45 44 42 40 35 27 23 19 16 15 20 20 18 19 19 19 20 23 25 27 30 33 34 36 37 38 38 37 39
29 22 18 21 24 30 37 47 53 55 56 50 44 46 44 39 39 35 34 33 28 18 14 21 21 20 21 21 23 24 25 27 29 32 34 35 36 37 40 41 40 40 40
20 24 28 33 36 41 46 47 47 42 40 45 49 49 50 46 40 32 24 16 11 15 19 20 21 21 22 26 26 27 28 30 30 30 31 32 32 34 34 32 31 31 35
25 25 28 38 43 48 49 49 47 44 43 43 41 39 36 30 24 15 8 11 18 19 19 21 22 22 24 28 27 29 29 29 27 25 25 26 27 27 26 22 24 26 31
24 27 29 34 40 42 43 41 39 39 37 36 33 28 25 19 13 12 19 21 22 21 21 22 23 24 24 27 27 29 27 25 24 24 26 26 25 26 32 32 30 30 30
20 22 28 32 35 37 37 39 39 37 35 31 27 20 15 11 18 21 20 22 23 22 22 22 24 24 23 26 25 25 24 23 21 21 24 27 27 26 27 29 33 35 34
23 23 28 32 35 39 41 38 35 29 26 22 18 14 16 22 24 20 22 22 23 23 23 23 24 24 22 25 22 23 22 21 19 18 21 23 25 26 23 26 33 38 39
28 27 34 36 40 42 39 35 28 23 21 19 20 22 21 20 20 20 22 24 25 26 23 23 23 22 22 22 24 22 21 20 20 21 21 22 23 22 24 28 35 41 43
28 30 37 42 44 42 37 32 26 24 24 23 21 20 19 20 21 23 25 26 27 26 25 24 24 23 23 21 22 22 24 23 23 24 26 28 28 24 24 29 35 41 40
32 38 44 47 45 41 37 33 28 27 26 26 23 21 22 24 25 26 27 27 28 27 24 24 23 21 19 19 19 20 19 20 25 31 31 28 24 21 26 34 40 41 42
41 43 46 46 44 41 36 31 31 29 26 23 23 25 27 28 29 30 29 28 24 22 21 21 20 17 17 18 17 15 15 17 21 25 24 26 28 30 32 36 40 39 43
49 48 47 44 43 40 36 33 28 27 30 32 31 29 27 24 24 24 26 27 25 24 24 23 23 20 17 15 13 13 16 18 23 26 27 29 32 37 41 41 38 38 40
53 50 45 39 38 38 35 32 33 33 31 29 28 28 24 26 27 28 26 27 25 26 27 27 26 25 24 19 12 13 22 29 31 31 39 43 44 44 44 41 44 46 44
48 48 43 38 39 38 36 35 31 30 31 32 29 28 28 29 29 30 29 28 26 27 28 27 27 26 25 20 21 26 29 30 31 36 44 47 46 47 48 51 53 43 37
Wind_Direction_500mb
199 193 194 191 195 197 201 200 194 192 197 196 195 193 192 188 187 180 175 169 161 152 141 129 119 109 100 91 83 79 70 64 54 57 60 48 45 40 39 43 44 47 48
182 185 189 189 196 196 202 199 195 197 201 199 197 198 196 191 196 187 186 181 175 168 155 140 128 115 101 91 84 76 70 65 60 62 59 40 26 21 30 26 32 34 35
175 182 189 192 197 199 201 199 197 200 202 197 192 188 197 198 198 194 194 191 187 179 170 161 149 133 118 104 87 72 62 62 57 51 56 75 36 26 23 13 19 21 22
186 188 189 193 198 199 201 200 199 202 201 198 198 204 208 206 203 203 199 199 195 192 189 182 174 166 148 117 89 69 53 49 44 42 43 44 38 43 96 347 355 357 9
187 187 191 197 199 198 201 199 203 203 200 204 207 208 204 204 206 206 204 204 201 199 198 197 196 193 186 176 135 67 44 30 26 25 24 23 11 24 358 307 327 358 5
175 181 188 191 193 197 201 197 203 203 202 207 202 200 194 199 206 209 207 205 204 203 203 204 204 205 203 202 205 314 359 2 1 1 3 3 354 350 349 331 333 345 353
172 176 178 180 187 195 203 201 203 200 204 201 194 189 195 211 217 211 207 208 208 206 206 206 208 207 208 212 226 258 302 324 336 341 346 348 347 341 338 335 335 336 346
171 178 183 183 195 202 203 200 202 200 200 196 196 196 205 210 207 204 204 206 206 204 204 206 207 203 207 220 241 264 290 307 316 329 340 335 332 331 328 327 327 331 330
150 183 195 201 209 201 197 196 198 199 198 197 197 200 201 199 195 193 197 197 202 200 197 200 202 206 216 233 255 275 283 290 301 310 314 310 309 310 311 313 315 315 315
146 165 176 189 195 198 191 196 202 198 196 198 198 197 197 196 195 195 195 197 196 193 191 198 204 215 233 254 263 270 280 290 295 295 300 303 303 305 305 304 304 305 301
147 185 192 194 190 190 192 195 199 196 198 196 195 196 194 192 194 193 198 197 194 195 199 207 227 244 249 253 256 263 271 278 285 293 296 296 298 298 299 299 299 299 298
255 202 194 196 195 198 199 200 200 197 194 195 192 193 192 192 192 190 190 192 190 195 210 226 243 247 251 255 260 265 278 285 287 288 289 290 290 289 290 290 289 288 288
275 255 214 207 205 207 201 199 199 194 192 195 194 192 190 184 182 181 182 193 201 197 203 222 243 249 257 263 268 272 276 279 281 283 282 282 283 284 283 281 280 280 280
270 252 226 215 204 196 189 187 187 193 194 195 193 188 183 179 181 186 188 194 201 202 219 232 243 252 261 266 268 272 275 276 277 279 282 285 286 286 284 283 282 282 280
277 256 227 206 208 207 200 200 199 198 201 195 189 189 193 195 196 195 185 171 187 224 239 248 252 257 262 265 273 273 273 273 274 279 285 288 289 291 293 291 292 291 289
301 276 243 233 226 219 213 212 214 209 205 198 191 187 183 178 167 144 161 215 229 236 242 250 258 263 268 274 275 276 275 274 274 276 277 280 284 288 290 284 285 289 293
300 277 271 241 226 217 214 209 200 187 180 177 171 165 156 147 148 181 219 230 235 238 242 251 259 263 266 271 271 272 273 273 273 273 276 279 279 275 280 287 289 288 289
290 268 256 235 224 218 205 191 181 176 170 169 169 160 151 173 221 226 231 239 243 245 246 251 255 259 262 270 270 272 274 275 273 274 279 284 286 283 287 295 299 301 301
277 257 244 225 209 196 186 182 177 176 175 178 175 176 206 217 230 232 236 243 248 251 250 253 257 260 260 266 267 268 274 278 275 275 280 289 295 302 297 291 296 301 301
258 246 225 214 200 189 184 182 184 189 198 202 202 209 220 230 239 243 246 249 250 250 253 255 259 262 261 259 267 270 270 272 275 274 272 273 275 287 288 290 293 294 298
250 232 216 205 198 193 191 192 201 212 214 215 220 227 235 242 244 247 247 249 251 253 254 255 257 258 259 256 253 257 267 276 279 280 279 279 283 284 282 284 286 290 301
236 219 209 203 199 198 199 205 215 221 221 228 233 239 243 243 244 246 248 248 248 249 250 253 255 254 253 253 249 249 262 286 291 288 292 296 300 297 291 288 288 289 288
233 215 206 202 202 204 212 223 226 225 228 239 248 248 245 243 242 241 241 240 243 250 253 253 256 252 249 252 242 246 260 267 276 291 301 305 293 288 287 288 295 291 282
223 213 206 209 208 211 221 229 233 239 242 241 241 242 245 248 249 247 244 246 246 247 248 249 250 248 243 249 259 265 242 267 292 294 295 296 293 288 288 292 290 286 285
222 214 216 215 213 222 227 233 238 240 246 250 251 250 249 248 245 244 244 246 243 243 246 247 249 248 245 237 246 283 296 297 300 303 292 290 291 292 295 294 295 296 293
225 223 216 219 223 226 228 234 243 250 251 248 243 240 239 239 239 241 241 242 243 244 249 250 256 258 259 264 261 263 267 273 282 287 286 286 287 288 290 294 297 294 291
Wind_Speed_850mb
36 45 47 50 50 53 52 48 46 46 45 42 38 34 31 27 26 24 23 22 21 20 20 20 21 23 22 25 26 30 31 32 27 22 19 23 23 27 30 34 34 33 32
39 45 50 53 52 55 53 48 46 47 44 39 35 30 30 28 27 26 26 24 21 19 18 16 15 16 18 20 20 21 24 28 28 20 17 10 13 25 26 26 31 31 32
42 47 50 53 52 55 53 49 48 46 43 39 37 33 33 33 32 30 28 26 23 19 16 14 12 11 12 13 14 16 17 22 23 24 17 6 7 9 16 21 23 26 28
37 43 48 50 52 52 49 48 47 45 42 41 44 44 38 36 31 30 30 28 25 21 18 14 12 9 8 7 8 10 13 15 18 18 20 14 9 5 3 7 16 26 22
35 41 45 45 45 50 48 48 47 45 45 46 42 39 34 29 29 32 31 30 27 23 19 16 14 10 8 5 3 5 8 11 14 17 17 12 8 8 5 6 17 17 18
20 31 35 38 38 44 47 50 48 45 47 45 40 36 30 33 34 33 33 32 28 24 21 17 14 11 9 6 3 1 4 8 12 14 14 10 8 11 10 14 23 24 26
17 26 35 39 43 46 46 49 51 48 47 42 41 38 39 39 33 31 32 31 29 26 22 18 15 12 9 8 6 5 5 8 11 12 11 10 10 11 14 17 21 30 30
15 23 29 35 39 43 44 49 48 48 45 46 45 45 43 37 31 30 30 28 26 25 23 19 15 13 11 10 8 8 9 11 12 9 8 10 12 14 17 19 24 29 27
11 15 20 27 31 34 39 42 45 45 43 44 46 44 39 37 35 36 32 31 29 23 22 19 17 14 12 10 10 12 12 10 8 9 9 10 14 16 19 21 24 24 21
10 15 20 21 22 27 33 37 41 41 45 45 45 45 45 42 39 38 37 35 29 24 21 19 16 13 12 13 12 11 10 9 11 13 14 16 19 22 23 24 25 25 26
4 10 17 22 28 32 37 39 38 43 44 45 46 47 46 44 42 40 35 30 26 24 20 15 13 13 12 11 12 13 13 13 14 17 20 22 23 26 28 28 30 32 32
9 12 21 25 31 39 43 44 45 44 44 45 47 46 46 46 43 39 36 31 27 22 17 14 14 15 16 16 16 16 17 18 20 22 25 27 29 31 33 34 34 34 34
15 13 19 27 34 35 37 41 43 48 52 54 52 51 45 44 42 40 35 27 23 19 16 15 20 20 18 19 19 19 20 23 25 27 30 33 34 36 37 38 38 37 39
29 22 18 21 24 30 37 47 53 55 56 50 44 46 44 39 39 35 34 33 28 18 14 21 21 20 21 21 23 24 25 27 29 32 34 35 36 37 40 41 40 40 40
20 24 28 33 36 41 46 47 47 42 40 45 49 49 50 46 40 32 24 16 11 15 19 20 21 21 22 26 26 27 28 30 30 30 31 32 32 34 34 32 31 31 35
25 25 28 38 43 48 49 49 47 44 43 43 41 39 36 30 24 15 8 11 18 19 19 21 22 22 24 28 27 29 29 29 27 25 25 26 27 27 26 22 24 26 31
24 27 29 34 40 42 43 41 39 39 37 36 33 28 25 19 13 12 19 21 22 21 21 22 23 24 24 27 27 29 27 25 24 24 26 26 25 26 32 32 30 30 30
20 22 28 32 35 37 37 39 39 37 35 31 27 20 15 11 18 21 20 22 23 22 22 22 24 24 23 26 25 25 24 23 21 21 24 27 27 26 27 29 33 35 34
23 23 28 32 35 39 41 38 35 29 26 22 18 14 16 22 24 20 22 22 23 23 23 23 24 24 22 25 22 23 22 21 19 18 21 23 25 26 23 26 33 38 39
28 27 34 36 40 42 39 35 28 23 21 19 20 22 21 20 20 20 22 24 25 26 23 23 23 22 22 22 24 22 21 20 20 21 21 22 23 22 24 28 35 41 43
28 30 37 42 44 42 37 32 26 24 24 23 21 20 19 20 21 23 25 26 27 26 25 24 24 23 23 21 22 22 24 23 23 24 26 28 28 24 24 29 35 41 40
32 38 44 47 45 41 37 33 28 27 26 26 23 21 22 24 25 26 27 27 28 27 24 24 23 21 19 19 19 20 19 20 25 31 31 28 24 21 26 34 40 41 42
41 43 46 46 44 41 36 31 31 29 26 23 23 25 27 28 29 30 29 28 24 22 21 21 20 17 17 18 17 15 15 17 21 25 24 26 28 30 32 36 40 39 43
49 48 47 44 43 40 36 33 28 27 30 32 31 29 27 24 24 24 26 27 25 24 24 23 23 20 17 15 13 13 16 18 23 26 27 29 32 37 41 41 38 38 40
53 50 45 39 38 38 35 32 33 33 31 29 28 28 24 26 27 28 26 27 25 26 27 27 26 25 24 19 12 13 22 29 31 31 39 43 44 44 44 41 44 46 44
48 48 43 38 39 38 36 35 31 30 31 32 29 28 28 29 29 30 29 28 26 27 28 27 27 26 25 20 21 26 29 30 31 36 44 47 46 47 48 51 53 43 37
Wind_Direction_850mb
199 193 194 191 195 197 201 200 194 192 197 196 195 193 192 188 187 180 175 169 161 152 141 129 119 109 100 91 83 79 70 64 54 57 60 48 45 40 39 43 44 47 48
182 185 189 189 196 196 202 199 195 197 201 199 197 198 196 191 196 187 186 181 175 168 155 140 128 115 101 91 84 76 70 65 60 62 59 40 26 21 30 26 32 34 35
175 182 189 192 197 199 201 199 197 200 202 197 192 188 197 198 198 194 194 191 187 179 170 161 149 133 118 104 87 72 62 62 57 51 56 75 36 26 23 13 19 21 22
186 188 189 193 198 199 201 200 199 202 201 198 198 204 208 206 203 203 199 199 195 192 189 182 174 166 148 117 89 69 53 49 44 42 43 44 38 43 96 347 355 357 9
187 187 191 197 199 198 201 199 203 203 200 204 207 208 204 204 206 206 204 204 201 199 198 197 196 193 186 176 135 67 44 30 26 25 24 23 11 24 358 307 327 358 5
175 181 188 191 193 197 201 197 203 203 202 207 202 200 194 199 206 209 207 205 204 203 203 204 204 205 203 202 205 314 359 2 1 1 3 3 354 350 349 331 333 345 353
172 176 178 180 187 195 203 201 203 200 204 201 194 189 195 211 217 211 207 208 208 206 206 206 208 207 208 212 226 258 302 324 336 341 346 348 347 341 338 335 335 336 346
171 178 183 183 195 202 203 200 202 200 200 196 196 196 205 210 207 204 204 206 206 204 204 206 207 203 207 220 241 264 290 307 316 329 340 335 332 331 328 327 327 331 330
150 183 195 201 209 201 197 196 198 199 198 197 197 200 201 199 195 193 197 197 202 200 197 200 202 206 216 233 255 275 283 290 301 310 314 310 309 310 311 313 315 315 315
146 165 176 189 195 198 191 196 202 198 196 198 198 197 197 196 195 195 195 197 196 193 191 198 204 215 233 254 263 270 280 290 295 295 300 303 303 305 305 304 304 305 301
147 185 192 194 190 190 192 195 199 196 198 196 195 196 194 192 194 193 198 197 194 195 199 207 227 244 249 253 256 263 271 278 285 293 296 296 298 298 299 299 299 299 298
255 202 194 196 195 198 199 200 200 197 194 195 192 193 192 192 192 190 190 192 190 195 210 226 243 247 251 255 260 265 278 285 287 288 289 290 290 289 290 290 289 288 288
275 255 214 207 205 207 201 199 199 194 192 195 194 192 190 184 182 181 182 193 201 197 203 222 243 249 257 263 268 272 276 279 281 283 282 282 283 284 283 281 280 280 280
270 252 226 215 204 196 189 187 187 193 194 195 193 188 183 179 181 186 188 194 201 202 219 232 243 252 261 266 268 272 275 276 277 279 282 285 286 286 284 283 282 282 280
277 256 227 206 208 207 200 200 199 198 201 195 189 189 193 195 196 195 185 171 187 224 239 248 252 257 262 265 273 273 273 273 274 279 285 288 289 291 293 291 292 291 289
301 276 243 233 226 219 213 212 214 209 205 198 191 187 183 178 167 144 161 215 229 236 242 250 258 263 268 274 275 276 275 274 274 276 277 280 284 288 290 284 285 289 293
300 277 271 241 226 217 214 209 200 187 180 177 171 165 156 147 148 181 219 230 235 238 242 251 259 263 266 271 271 272 273 273 273 273 276 279 279 275 280 287 289 288 289
290 268 256 235 224 218 205 191 181 176 170 169 169 160 151 173 221 226 231 239 243 245 246 251 255 259 262 270 270 272 274 275 273 274 279 284 286 283 287 295 299 301 301
277 257 244 225 209 196 186 182 177 176 175 178 175 176 206 217 230 232 236 243 248 251 250 253 257 260 260 266 267 268 274 278 275 275 280 289 295 302 297 291 296 301 301
258 246 225 214 200 189 184 182 184 189 198 202 202 209 220 230 239 243 246 249 250 250 253 255 259 262 261 259 267 270 270 272 275 274 272 273 275 287 288 290 293 294 298
250 232 216 205 198 193 191 192 201 212 214 215 220 227 235 242 244 247 247 249 251 253 254 255 257 258 259 256 253 257 267 276 279 280 279 279 283 284 282 284 286 290 301
236 219 209 203 199 198 199 205 215 221 221 228 233 239 243 243 244 246 248 248 248 249 250 253 255 254 253 253 249 249 262 286 291 288 292 296 300 297 291 288 288 289 288
233 215 206 202 202 204 212 223 226 225 228 239 248 248 245 243 242 241 241 240 243 250 253 253 256 252 249 252 242 246 260 267 276 291 301 305 293 288 287 288 295 291 282
223 213 206 209 208 211 221 229 233 239 242 241 241 242 245 248 249 247 244 246 246 247 248 249 250 248 243 249 259 265 242 267 292 294 295 296 293 288 288 292 290 286 285
222 214 216 215 213 222 227 233 238 240 246 250 251 250 249 248 245 244 244 246 243 243 246 247 249 248 245 237 246 283 296 297 300 303 292 290 291 292 295 294 295 296 293
225 223 216 219 223 226 228 234 243 250 251 248 243 240 239 239 239 241 241 242 243 244 249 250 256 258 259 264 261 263 267 273 282 287 286 286 287 288 290 294 297 294 291